EZY67JS EGNT-DTNH

Flight info

Callsign EZY67JS
Flight time 3h 2m
Altitude 35000
Route GIRLI P18 GASKO P16 RIBEL UP16 CROFT UL612 HON DCT XAMAB DCT VEULE DCT DEKOD DCT DISAK DCT DIRMO DCT ETAMO DCT ADEKA DCT MOKDI DCT MEN DCT AMLIR DCT FJR DCT AMFAC DCT BATIV DCT PELOS DCT IPROM DCT KOVAS DCT CAR DCT PIRIX DCT OSMAR UA725 TANIT UM739 CBN/N0368F230 M738 DIDON G727 ATLEL ATLEL1E
Aircraft A320/M-SDE2E3FGHIJ1RWXYZ/LB1

Departure

Time 2026-05-04 07:27
Airport Newcastle International Airport (EGNT)

Arrival

Time 2026-05-04 10:30
Airport Enfidha - Hammamet International Airport (DTNH)
Time Latitude Longitude Altitude Speed Heading
2026-05-04 07:22 55.03764 -1.70411 267 ft 18 kts 31°
2026-05-04 07:22 55.03774 -1.70179 263 ft 23 kts 93°
2026-05-04 07:23 55.03780 -1.69880 259 ft 26 kts 83°
2026-05-04 07:23 55.03821 -1.69573 257 ft 26 kts 71°
2026-05-04 07:23 55.03891 -1.69293 254 ft 25 kts 65°
2026-05-04 07:23 55.03965 -1.69015 252 ft 25 kts 66°
2026-05-04 07:24 55.04038 -1.68741 250 ft 25 kts 65°
2026-05-04 07:24 55.04110 -1.68472 248 ft 24 kts 64°
2026-05-04 07:24 55.04178 -1.68213 247 ft 23 kts 65°
2026-05-04 07:24 55.04244 -1.67963 247 ft 22 kts 65°
2026-05-04 07:25 55.04310 -1.67720 245 ft 22 kts 64°
2026-05-04 07:26 55.04199 -1.67446 242 ft 2 kts 245°
2026-05-04 07:27 55.04167 -1.67570 244 ft 40 kts 246°
2026-05-04 07:27 55.03946 -1.68398 249 ft 108 kts 245°
2026-05-04 07:27 55.03562 -1.69842 320 ft 151 kts 245°
2026-05-04 07:27 55.03135 -1.71499 1062 ft 144 kts 245°
2026-05-04 07:28 55.02707 -1.73112 1493 ft 158 kts 244°
2026-05-04 07:28 55.02187 -1.74954 1728 ft 178 kts 236°
2026-05-04 07:28 55.01150 -1.76224 1948 ft 198 kts 194°
2026-05-04 07:28 54.99704 -1.76558 2211 ft 223 kts 185°
2026-05-04 07:29 54.98068 -1.76794 2576 ft 246 kts 184°
2026-05-04 07:29 54.96330 -1.77031 3220 ft 255 kts 184°
2026-05-04 07:29 54.94534 -1.77273 3952 ft 261 kts 185°
2026-05-04 07:29 54.92731 -1.77512 4698 ft 267 kts 185°
2026-05-04 07:30 54.90863 -1.77757 5443 ft 272 kts 185°
2026-05-04 07:30 54.88961 -1.78004 6231 ft 275 kts 185°
2026-05-04 07:30 54.87040 -1.78254 6984 ft 279 kts 186°
2026-05-04 07:30 54.85096 -1.78555 7713 ft 282 kts 188°
2026-05-04 07:31 54.83152 -1.78989 8438 ft 285 kts 189°
2026-05-04 07:31 54.81164 -1.79499 9197 ft 289 kts 190°
2026-05-04 07:33 54.65472 -1.83534 12871 ft 351 kts 189°
2026-05-04 07:33 54.63048 -1.84137 13518 ft 354 kts 189°
2026-05-04 07:33 54.60602 -1.84747 14111 ft 357 kts 189°
2026-05-04 07:33 54.58134 -1.85358 14674 ft 360 kts 189°
2026-05-04 07:34 54.55677 -1.85963 15223 ft 363 kts 189°
2026-05-04 07:34 54.53172 -1.86587 15790 ft 365 kts 189°
2026-05-04 07:34 54.50651 -1.87219 16353 ft 368 kts 189°
2026-05-04 07:34 54.48109 -1.87853 16912 ft 370 kts 189°
2026-05-04 07:35 54.45549 -1.88487 17456 ft 373 kts 189°
2026-05-04 07:35 54.42974 -1.89123 17989 ft 376 kts 189°
2026-05-04 07:35 54.40382 -1.89761 18492 ft 378 kts 189°
2026-05-04 07:35 54.37760 -1.90402 18957 ft 381 kts 188°
2026-05-04 07:36 54.35123 -1.91043 19389 ft 384 kts 188°
2026-05-04 07:36 54.32504 -1.91680 19816 ft 387 kts 188°
2026-05-04 07:38 54.13437 -1.96358 22713 ft 408 kts 188°
2026-05-04 07:38 54.10617 -1.97041 23113 ft 410 kts 188°
2026-05-04 07:38 54.07817 -1.97718 23493 ft 413 kts 187°
2026-05-04 07:38 54.04966 -1.98406 23844 ft 416 kts 187°
2026-05-04 07:39 54.02093 -1.99095 24161 ft 418 kts 187°
2026-05-04 07:39 53.99204 -1.99790 24472 ft 421 kts 187°
2026-05-04 07:39 53.96292 -2.00497 24784 ft 424 kts 187°
2026-05-04 07:39 53.93369 -2.01208 25078 ft 426 kts 187°
2026-05-04 07:40 53.90457 -2.01914 25376 ft 429 kts 187°
2026-05-04 07:40 53.87454 -2.02636 25681 ft 432 kts 187°
2026-05-04 07:40 53.84517 -2.03338 25966 ft 434 kts 187°
2026-05-04 07:40 53.81516 -2.04056 26257 ft 437 kts 187°
2026-05-04 07:41 53.78504 -2.04776 26549 ft 439 kts 187°
2026-05-04 07:41 53.75469 -2.05502 26834 ft 442 kts 187°
2026-05-04 07:41 53.72413 -2.06230 27121 ft 444 kts 186°
2026-05-04 07:41 53.69345 -2.06958 27402 ft 447 kts 186°
2026-05-04 07:42 53.66255 -2.07691 27677 ft 449 kts 186°
2026-05-04 07:42 53.63156 -2.08432 27945 ft 452 kts 186°
2026-05-04 07:42 53.60032 -2.09177 28223 ft 454 kts 186°
2026-05-04 07:42 53.56987 -2.09903 28481 ft 456 kts 186°
2026-05-04 07:43 53.53834 -2.10653 28746 ft 459 kts 186°
2026-05-04 07:43 53.50666 -2.11406 29007 ft 461 kts 186°
2026-05-04 07:43 53.47489 -2.12160 29249 ft 463 kts 186°
2026-05-04 07:43 53.44288 -2.12915 29495 ft 465 kts 186°
2026-05-04 07:44 53.41065 -2.13669 29735 ft 467 kts 186°
2026-05-04 07:44 53.37837 -2.14419 29982 ft 469 kts 185°
2026-05-04 07:44 53.34603 -2.15172 30203 ft 471 kts 185°
2026-05-04 07:44 53.31393 -2.15921 30457 ft 471 kts 186°
2026-05-04 07:45 53.28153 -2.16683 30809 ft 469 kts 186°
2026-05-04 07:45 53.24933 -2.17440 31155 ft 467 kts 186°
2026-05-04 07:45 53.21720 -2.18192 31504 ft 465 kts 186°
2026-05-04 07:45 53.18520 -2.18852 31843 ft 462 kts 181°
2026-05-04 07:46 53.15323 -2.18809 32160 ft 458 kts 172°
2026-05-04 07:46 53.12199 -2.17957 32483 ft 454 kts 163°
2026-05-04 07:46 53.09210 -2.16362 32789 ft 450 kts 155°
2026-05-04 07:46 53.06362 -2.14378 33085 ft 449 kts 155°
2026-05-04 07:47 53.03483 -2.12383 33373 ft 448 kts 156°
2026-05-04 07:47 53.00614 -2.10407 33671 ft 447 kts 156°
2026-05-04 07:47 52.97741 -2.08434 33969 ft 446 kts 156°
2026-05-04 07:49 52.77763 -1.94757 35049 ft 441 kts 157°
2026-05-04 07:49 52.72147 -1.90940 35046 ft 439 kts 157°
2026-05-04 07:50 52.66510 -1.87119 35046 ft 438 kts 157°
2026-05-04 07:50 52.60880 -1.83316 35054 ft 437 kts 157°
2026-05-04 07:51 52.55252 -1.79510 35059 ft 437 kts 158°
2026-05-04 07:51 52.49674 -1.75748 35060 ft 437 kts 158°
2026-05-04 07:52 52.44036 -1.71963 35060 ft 441 kts 158°
2026-05-04 07:52 52.38296 -1.68130 35057 ft 449 kts 158°
2026-05-04 07:54 52.16430 -1.48264 35022 ft 451 kts 151°
2026-05-04 07:55 52.10992 -1.43180 35024 ft 451 kts 151°
2026-05-04 07:55 52.05584 -1.38138 35022 ft 451 kts 151°
2026-05-04 07:56 52.00142 -1.33076 35026 ft 451 kts 151°
2026-05-04 07:56 51.94703 -1.28022 35026 ft 451 kts 151°
2026-05-04 07:57 51.89261 -1.22990 35024 ft 450 kts 152°
2026-05-04 07:57 51.83820 -1.17969 35026 ft 450 kts 152°
2026-05-04 07:58 51.78413 -1.12997 35025 ft 450 kts 152°
2026-05-04 07:58 51.72972 -1.08007 35001 ft 450 kts 152°
2026-05-04 07:59 51.67559 -1.03054 34998 ft 449 kts 152°
2026-05-04 07:59 51.62099 -0.98073 34997 ft 449 kts 152°
2026-05-04 08:00 51.56664 -0.93124 35000 ft 449 kts 152°
2026-05-04 08:02 51.35150 -0.73704 35026 ft 448 kts 153°
2026-05-04 08:02 51.29748 -0.68851 35026 ft 448 kts 153°
2026-05-04 08:03 51.24378 -0.64038 35030 ft 447 kts 153°
2026-05-04 08:03 51.18961 -0.59199 35026 ft 446 kts 153°
2026-05-04 08:04 51.13964 -0.54763 35027 ft 445 kts 153°
2026-05-04 08:04 51.08552 -0.49966 35016 ft 444 kts 154°
2026-05-04 08:05 51.03190 -0.45217 35020 ft 443 kts 154°
2026-05-04 08:05 50.97810 -0.40461 35015 ft 444 kts 154°
2026-05-04 08:06 50.92389 -0.35681 34999 ft 447 kts 154°
2026-05-04 08:06 50.86939 -0.30903 35001 ft 449 kts 154°
2026-05-04 08:08 50.65076 -0.11831 35012 ft 449 kts 154°
2026-05-04 08:11 50.40538 0.09328 35009 ft 446 kts 155°
2026-05-04 08:11 50.32362 0.16310 35010 ft 446 kts 155°
2026-05-04 08:12 50.26965 0.20917 35009 ft 445 kts 155°
2026-05-04 08:12 50.21534 0.25548 35012 ft 444 kts 155°
2026-05-04 08:13 50.16212 0.30490 35008 ft 446 kts 150°
2026-05-04 08:13 50.11071 0.35911 35010 ft 446 kts 149°
2026-05-04 08:14 50.05981 0.41326 35012 ft 445 kts 149°
2026-05-04 08:16 49.85362 0.62287 35016 ft 442 kts 150°
2026-05-04 08:16 49.80197 0.67416 35009 ft 441 kts 151°
2026-05-04 08:17 49.74991 0.72439 35017 ft 440 kts 152°
2026-05-04 08:17 49.69793 0.77434 35006 ft 440 kts 152°
2026-05-04 08:19 49.49127 0.97381 34991 ft 438 kts 152°
2026-05-04 08:20 49.43962 1.02332 34990 ft 437 kts 152°
2026-05-04 08:20 49.38833 1.07231 34985 ft 437 kts 152°
2026-05-04 08:21 49.33668 1.12154 34986 ft 437 kts 152°
2026-05-04 08:21 49.28511 1.17061 34988 ft 436 kts 152°
2026-05-04 08:22 49.23356 1.21958 34984 ft 436 kts 152°
2026-05-04 08:24 49.02779 1.41360 34974 ft 435 kts 152°
2026-05-04 08:24 48.97631 1.46182 34970 ft 434 kts 152°
2026-05-04 08:25 48.92517 1.50959 34970 ft 434 kts 152°
2026-05-04 08:25 48.87261 1.55373 34966 ft 427 kts 164°
2026-05-04 08:27 48.64765 1.66741 34969 ft 426 kts 165°
2026-05-04 08:28 48.59134 1.69568 34967 ft 426 kts 165°
2026-05-04 08:28 48.53507 1.72385 34966 ft 426 kts 165°
2026-05-04 08:29 48.47873 1.75184 34964 ft 426 kts 165°
2026-05-04 08:31 48.25391 1.86343 34962 ft 426 kts 165°
2026-05-04 08:33 48.02888 1.97422 34979 ft 427 kts 165°
2026-05-04 08:35 47.80328 2.08404 34980 ft 427 kts 165°
2026-05-04 08:35 47.74672 2.11141 34976 ft 427 kts 165°
2026-05-04 08:37 47.54902 2.20671 34965 ft 428 kts 165°
2026-05-04 08:38 47.49245 2.23381 34969 ft 428 kts 166°
2026-05-04 08:38 47.43578 2.26083 34969 ft 428 kts 166°
2026-05-04 08:40 47.20948 2.36854 34968 ft 428 kts 166°
2026-05-04 08:41 47.15311 2.39522 34968 ft 428 kts 166°
2026-05-04 08:41 47.09643 2.42195 34969 ft 428 kts 166°
2026-05-04 08:42 47.03971 2.44861 34976 ft 429 kts 166°
2026-05-04 08:42 46.98287 2.47532 34977 ft 428 kts 166°
2026-05-04 08:43 46.92659 2.50170 34973 ft 428 kts 166°
2026-05-04 08:43 46.86994 2.52826 34973 ft 428 kts 166°
2026-05-04 08:44 46.81324 2.55483 34974 ft 428 kts 166°
2026-05-04 08:46 46.58652 2.65992 34975 ft 428 kts 166°
2026-05-04 08:46 46.52970 2.68617 34976 ft 429 kts 166°
2026-05-04 08:47 46.47294 2.71240 34971 ft 428 kts 166°
2026-05-04 08:47 46.41645 2.73838 34977 ft 429 kts 166°
2026-05-04 08:48 46.35956 2.76442 34979 ft 429 kts 166°
2026-05-04 08:48 46.30267 2.79041 34982 ft 429 kts 166°
2026-05-04 08:49 46.24607 2.81622 34981 ft 429 kts 166°
2026-05-04 08:50 46.04667 2.90689 34982 ft 430 kts 166°
2026-05-04 08:51 45.98949 2.93266 34983 ft 430 kts 166°
2026-05-04 08:51 45.93271 2.95819 34983 ft 430 kts 166°
2026-05-04 08:52 45.87565 2.98391 34979 ft 430 kts 166°
2026-05-04 08:52 45.81852 3.00956 34985 ft 430 kts 166°
2026-05-04 08:54 45.59021 3.11160 34983 ft 431 kts 167°
2026-05-04 08:55 45.53295 3.13707 34982 ft 431 kts 167°
2026-05-04 08:55 45.47564 3.16250 34982 ft 431 kts 167°
2026-05-04 09:01 44.87319 3.42648 35007 ft 434 kts 167°
2026-05-04 09:01 44.81536 3.45146 35013 ft 435 kts 167°
2026-05-04 09:02 44.75750 3.47642 35021 ft 435 kts 167°
2026-05-04 09:02 44.69956 3.50138 35022 ft 435 kts 167°
2026-05-04 09:03 44.64199 3.52613 35023 ft 435 kts 167°
2026-05-04 09:03 44.58401 3.55106 35024 ft 436 kts 168°
2026-05-04 09:04 44.52608 3.57593 35031 ft 436 kts 168°
2026-05-04 09:04 44.46790 3.60083 35051 ft 437 kts 168°
2026-05-04 09:05 44.41021 3.62541 35040 ft 437 kts 168°
2026-05-04 09:05 44.35201 3.65017 35050 ft 437 kts 168°
2026-05-04 09:06 44.29374 3.67490 35043 ft 438 kts 168°
2026-05-04 09:08 44.06061 3.77350 35039 ft 440 kts 168°
2026-05-04 09:08 44.00202 3.79808 35036 ft 439 kts 168°
2026-05-04 09:09 43.94351 3.82262 35031 ft 439 kts 168°
2026-05-04 09:09 43.88541 3.84689 35025 ft 439 kts 168°
2026-05-04 09:10 43.82692 3.87138 35022 ft 439 kts 169°
2026-05-04 09:10 43.76845 3.89573 35013 ft 439 kts 169°
2026-05-04 09:11 43.70990 3.92012 35011 ft 440 kts 169°
2026-05-04 09:11 43.65173 3.94430 35007 ft 439 kts 169°
2026-05-04 09:12 43.59384 3.97238 35004 ft 448 kts 158°
2026-05-04 09:12 43.56746 3.99600 35002 ft 457 kts 147°
2026-05-04 09:14 43.41543 4.22719 34991 ft 468 kts 138°
2026-05-04 09:14 43.37197 4.29407 34988 ft 470 kts 138°
2026-05-04 09:15 43.32844 4.36107 34984 ft 470 kts 138°
2026-05-04 09:15 43.28509 4.42753 34989 ft 470 kts 138°
2026-05-04 09:17 43.08814 4.72760 35003 ft 472 kts 138°
2026-05-04 09:18 43.04419 4.79419 35002 ft 473 kts 138°
2026-05-04 09:18 43.00006 4.86080 35003 ft 473 kts 138°
2026-05-04 09:19 42.95576 4.92756 35007 ft 473 kts 138°
2026-05-04 09:19 42.91181 4.99366 35006 ft 474 kts 139°
2026-05-04 09:20 42.86816 5.06132 35007 ft 479 kts 132°
2026-05-04 09:20 42.82864 5.13447 35009 ft 480 kts 132°
2026-05-04 09:21 42.78898 5.20784 35011 ft 481 kts 132°
2026-05-04 09:21 42.74916 5.28122 35009 ft 482 kts 132°
2026-05-04 09:22 42.70951 5.35416 35010 ft 483 kts 132°
2026-05-04 09:22 42.66951 5.42761 35014 ft 484 kts 132°
2026-05-04 09:23 42.62943 5.50094 35019 ft 485 kts 133°
2026-05-04 09:23 42.58904 5.57451 35016 ft 486 kts 133°
2026-05-04 09:25 42.42702 5.86808 35023 ft 488 kts 133°
2026-05-04 09:26 42.38621 5.94168 35038 ft 489 kts 133°
2026-05-04 09:26 42.34562 6.01478 35039 ft 490 kts 133°
2026-05-04 09:27 42.30456 6.08841 35034 ft 491 kts 133°
2026-05-04 09:27 42.26332 6.16202 35034 ft 491 kts 133°
2026-05-04 09:28 42.22203 6.23570 35097 ft 494 kts 133°
2026-05-04 09:28 42.20129 6.27271 35308 ft 494 kts 133°
2026-05-04 09:28 42.18083 6.30914 35499 ft 494 kts 133°
2026-05-04 09:29 42.16004 6.34606 35670 ft 495 kts 133°
2026-05-04 09:29 42.13923 6.38294 35849 ft 495 kts 133°
2026-05-04 09:29 42.11842 6.41981 36014 ft 495 kts 133°
2026-05-04 09:29 42.09787 6.45701 36177 ft 497 kts 131°
2026-05-04 09:30 42.07757 6.49480 36343 ft 497 kts 131°
2026-05-04 09:30 42.05756 6.53272 36513 ft 498 kts 131°
2026-05-04 09:30 42.03757 6.57079 36655 ft 498 kts 131°
2026-05-04 09:30 42.01749 6.60883 36809 ft 498 kts 131°
2026-05-04 09:31 41.99730 6.64677 36980 ft 498 kts 131°
2026-05-04 09:31 41.97733 6.68404 37059 ft 499 kts 131°
2026-05-04 09:31 41.93654 6.75950 37066 ft 499 kts 131°
2026-05-04 09:32 41.89560 6.83501 37071 ft 500 kts 131°
2026-05-04 09:34 41.73181 7.13604 37067 ft 501 kts 131°
2026-05-04 09:34 41.69067 7.21130 37059 ft 501 kts 131°
2026-05-04 09:35 41.64970 7.28599 37057 ft 501 kts 131°
2026-05-04 09:35 41.60834 7.36110 37062 ft 502 kts 131°
2026-05-04 09:37 41.44240 7.66110 37082 ft 504 kts 131°
2026-05-04 09:38 41.40061 7.73615 37078 ft 505 kts 131°
2026-05-04 09:38 41.35881 7.81110 37081 ft 505 kts 131°
2026-05-04 09:39 41.31685 7.88615 37074 ft 505 kts 131°
2026-05-04 09:39 41.27515 7.96041 37068 ft 505 kts 131°
2026-05-04 09:40 41.23304 8.03506 37066 ft 505 kts 131°
2026-05-04 09:40 41.19079 8.10998 37070 ft 506 kts 131°
2026-05-04 09:42 40.96344 8.29589 37064 ft 482 kts 162°
2026-05-04 09:43 40.90232 8.33273 37063 ft 483 kts 162°
2026-05-04 09:43 40.84116 8.36939 37066 ft 483 kts 162°
2026-05-04 09:44 40.78036 8.40573 37069 ft 484 kts 162°
2026-05-04 09:46 40.53510 8.55139 37080 ft 484 kts 163°
2026-05-04 09:46 40.47364 8.58773 37082 ft 485 kts 163°
2026-05-04 09:47 40.41212 8.62411 37083 ft 485 kts 163°
2026-05-04 09:49 40.17621 8.76269 37101 ft 486 kts 163°
2026-05-04 09:51 39.94945 8.89506 37106 ft 488 kts 163°
2026-05-04 09:51 39.89797 8.92489 37105 ft 488 kts 163°
2026-05-04 09:52 39.83591 8.96074 37104 ft 488 kts 163°
2026-05-04 09:52 39.76367 9.00238 37095 ft 489 kts 163°
2026-05-04 09:53 39.71171 9.03243 37101 ft 489 kts 163°
2026-05-04 09:53 39.64993 9.06836 37091 ft 493 kts 160°
2026-05-04 09:54 39.59097 9.11531 37085 ft 500 kts 154°
2026-05-04 09:54 39.53230 9.16387 37082 ft 501 kts 154°
2026-05-04 09:55 39.47340 9.21242 37079 ft 502 kts 154°
2026-05-04 09:55 39.41478 9.26051 37083 ft 502 kts 154°
2026-05-04 09:56 39.35575 9.30883 37084 ft 504 kts 154°
2026-05-04 09:56 39.29643 9.35724 37082 ft 504 kts 154°
2026-05-04 09:57 39.23711 9.40567 37087 ft 505 kts 153°
2026-05-04 09:57 39.17815 9.45375 37093 ft 505 kts 153°
2026-05-04 09:58 39.11806 9.50015 37091 ft 499 kts 161°
2026-05-04 09:58 39.05308 9.52737 37088 ft 488 kts 173°
2026-05-04 10:00 38.78926 9.61498 37086 ft 491 kts 172°
2026-05-04 10:04 38.33561 9.76102 37099 ft 488 kts 172°
2026-05-04 10:04 38.27371 9.78081 37096 ft 487 kts 172°
2026-05-04 10:05 38.20809 9.80193 37087 ft 486 kts 172°
2026-05-04 10:05 38.14300 9.82296 37098 ft 486 kts 172°
2026-05-04 10:06 38.07760 9.84404 37095 ft 486 kts 172°
2026-05-04 10:06 38.01260 9.86489 37102 ft 486 kts 172°
2026-05-04 10:08 37.78403 9.94041 37098 ft 492 kts 163°
2026-05-04 10:08 37.75372 9.95994 37100 ft 500 kts 152°
2026-05-04 10:08 37.72589 9.98656 37100 ft 507 kts 141°
2026-05-04 10:09 37.67714 10.05155 37091 ft 510 kts 136°
2026-05-04 10:09 37.62863 10.11686 37090 ft 511 kts 137°
2026-05-04 10:10 37.58084 10.18076 37098 ft 511 kts 137°
2026-05-04 10:10 37.53200 10.24599 37100 ft 512 kts 136°
2026-05-04 10:11 37.48355 10.31091 37111 ft 512 kts 136°
2026-05-04 10:11 37.43470 10.37624 37106 ft 513 kts 136°
2026-05-04 10:12 37.38577 10.44162 37107 ft 513 kts 136°
2026-05-04 10:12 37.33714 10.50645 37111 ft 514 kts 136°
2026-05-04 10:13 37.28807 10.57168 37115 ft 514 kts 136°
2026-05-04 10:13 37.23882 10.63696 37116 ft 514 kts 136°
2026-05-04 10:14 37.21419 10.66952 36808 ft 516 kts 136°
2026-05-04 10:14 37.18832 10.70046 35910 ft 511 kts 147°
2026-05-04 10:16 36.95573 10.77391 26452 ft 494 kts 173°
2026-05-04 10:16 36.92225 10.78182 25195 ft 486 kts 173°
2026-05-04 10:16 36.88942 10.78946 24017 ft 480 kts 173°
2026-05-04 10:16 36.85609 10.79705 22695 ft 490 kts 173°
2026-05-04 10:17 36.82240 10.80463 21557 ft 492 kts 172°
2026-05-04 10:17 36.78915 10.81213 21098 ft 478 kts 172°
2026-05-04 10:19 36.57859 10.86029 16097 ft 395 kts 172°
2026-05-04 10:19 36.55166 10.86635 15470 ft 391 kts 172°
2026-05-04 10:19 36.52536 10.87199 14764 ft 385 kts 175°
2026-05-04 10:19 36.49925 10.87137 14063 ft 371 kts 193°
2026-05-04 10:20 36.47473 10.86284 13295 ft 360 kts 200°
2026-05-04 10:20 36.45370 10.85446 12600 ft 353 kts 200°
2026-05-04 10:20 36.43056 10.84516 11853 ft 347 kts 200°
2026-05-04 10:20 36.40803 10.83607 11506 ft 329 kts 200°
2026-05-04 10:21 36.38699 10.82761 11264 ft 311 kts 200°
2026-05-04 10:21 36.36669 10.81943 10777 ft 303 kts 200°
2026-05-04 10:21 36.34686 10.81141 10304 ft 296 kts 200°
2026-05-04 10:21 36.32776 10.80368 9823 ft 290 kts 200°
2026-05-04 10:22 36.29010 10.78850 8797 ft 279 kts 200°
2026-05-04 10:22 36.27186 10.78116 8294 ft 273 kts 200°
2026-05-04 10:22 36.25397 10.77398 7797 ft 268 kts 199°
2026-05-04 10:23 36.23638 10.76692 7307 ft 263 kts 199°
2026-05-04 10:23 36.21915 10.76003 6845 ft 259 kts 199°
2026-05-04 10:25 36.10394 10.71366 3067 ft 244 kts 205°
2026-05-04 10:25 36.09027 10.70247 2982 ft 229 kts 223°
2026-05-04 10:25 36.08096 10.68777 2981 ft 214 kts 239°
2026-05-04 10:25 36.07578 10.67120 2982 ft 201 kts 255°
2026-05-04 10:26 36.07449 10.65425 2969 ft 199 kts 268°
2026-05-04 10:26 36.07462 10.63724 2794 ft 196 kts 267°
2026-05-04 10:26 36.07473 10.62042 2549 ft 196 kts 267°
2026-05-04 10:26 36.07483 10.60359 2303 ft 198 kts 266°
2026-05-04 10:27 36.07493 10.58653 2045 ft 200 kts 267°
2026-05-04 10:27 36.07504 10.56917 1770 ft 202 kts 267°
2026-05-04 10:27 36.07514 10.55213 1496 ft 199 kts 266°
2026-05-04 10:27 36.07524 10.53509 1248 ft 196 kts 266°
2026-05-04 10:28 36.07534 10.51880 1008 ft 183 kts 266°
2026-05-04 10:28 36.07543 10.50356 769 ft 172 kts 266°
2026-05-04 10:28 36.07550 10.48912 569 ft 162 kts 266°
2026-05-04 10:28 36.07557 10.47555 352 ft 155 kts 267°
2026-05-04 10:29 36.07564 10.46267 183 ft 150 kts 266°
2026-05-04 10:29 36.07585 10.45017 34 ft 138 kts 267°
2026-05-04 10:29 36.07469 10.44039 29 ft 91 kts 252°
2026-05-04 10:29 36.07271 10.43463 30 ft 56 kts 243°
2026-05-04 10:30 36.07136 10.43151 29 ft 27 kts 243°
2026-05-04 10:30 36.07098 10.43053 23 ft 2 kts 245°
2026-05-04 10:30 36.07104 10.43070 25 ft 5 kts 245°
2026-05-04 10:30 36.07127 10.43130 27 ft 10 kts 246°
2026-05-04 10:31 36.07162 10.43229 27 ft 15 kts 248°
2026-05-04 10:31 36.07203 10.43375 27 ft 22 kts 256°
2026-05-04 10:32 36.08334 10.43614 17 ft 0 kts 135°